Location: Powder Track
(41.8531°N, 72.3584°W)
Time: 07:35:18
(UTC+00:00)

Altair - Pass Details

Date: 05 August 2021
Orbit: 1501 x 1682 km, 47.2° (Epoch: 19 September)

Event Time Altitude Azimuth Distance (km) Brightness Sun altitude
Exits shadow 08:15:10 - 277° (W) 4,577 9.6 -15.4°
Reaches altitude 10° 08:17:53 10° 280° (W) 3,719 9.1 -15.0°
Maximum altitude 08:27:08 63° 1° (N) 1,662 7.9 -13.7°
Drops below altitude 10° 08:36:14 10° 82° (E) 3,652 10.5 -12.3°
Sets 08:39:18 0° 86° (E) 4,635 11.1 -11.9°
